Regional Weather Roundup
Issued by NWS Portland, ME

Current Version | Previous Version | Text Only | Print | Product List | Glossary Off
Versions: 1 2 3 4 5 6 7 8 9 10 11 12 13 14 15 16 17 18 19 20 21 22 23 24 25 26 27 28 29 30 31 32 33 34 35 36 37 38 39 40 41 42 43 44 45 46 47 48 49 50

000
ASUS41 KGYX 191505
RWRGYX
WEATHER ROUNDUP FOR MAINE AND NEW HAMPSHIRE
NATIONAL WEATHER SERVICE GRAY ME
1100 AM EDT FRI SEP 19 2014

MEZ002-005-006-010-012-015-018-020-021-024-026-027-029-191600-
MAINE

CITY           SKY/WX    TMP DP  RH WIND       PRES   REMARKS
PORTLAND       SUNNY     52  29  41 E7        30.40R
SANFORD        SUNNY     52  27  37 N8        30.40S
BAR HARBOR     SUNNY     50  25  37 N14G20    30.36S
WISCASSET      SUNNY     52  25  35 VRB6      30.40S
ROCKLAND       SUNNY     52  27  37 N5        30.37S
FRYEBURG       SUNNY     53  22  29 VRB3      30.39S
LEWISTONAUBURN SUNNY     48  25  40 NE7G21    30.39S
AUGUSTA        SUNNY     50  25  37 NW10      30.39R
WATERVILLE     SUNNY     48  27  43 N6        30.34S
BANGOR         SUNNY     51  24  34 N13       30.37F
GREENVILLE       N/A     44  23  43 NW8G17    30.33R
MILLINOCKET    SUNNY     49  19  30 N8        30.37S
HOULTON        SUNNY     47  25  42 N8        30.33S
PRESQUE ISLE   SUNNY     45  25  45 NW7G16    30.33S
FRENCHVILLE    MOSUNNY   41  26  55 NW8G18    30.32R
CARIBOU        SUNNY     46  28  49 VRB6      30.32S
$$

NHZ002-005-008-009-011-012-014-191600-
NEW HAMPSHIRE

CITY           SKY/WX    TMP DP  RH WIND       PRES   REMARKS
ROCHESTER      SUNNY     52  27  38 N8        30.39S
NASHUA         SUNNY     51  29  43 E5        30.40F
MANCHESTER     MOSUNNY   53  25  33 N9        30.38S
CONCORD        SUNNY     52  25  35 E3        30.39F
LACONIA        SUNNY     50  25  37 NE3       30.38R
PLYMOUTH       FAIR      50  33  52 CALM      30.38S
BERLIN         SUNNY     48  25  40 CALM      30.37F
WHITEFIELD     SUNNY     47  27  45 VRB5      30.38F
JAFFREY        SUNNY     49  30  48 VRB6      30.38S
LEBANON        SUNNY     50  27  40 N8        30.39F
MT WASHINGTON  NOT AVBL
$$

VTZ005-007-008-191600-
VERMONT

CITY           SKY/WX    TMP DP  RH WIND       PRES   REMARKS
ST JOHNSBURY     N/A     45  26  47 MISG      30.38F
MONTPELIER     SUNNY     44  27  51 CALM      30.42F
BURLINGTON     SUNNY     49  26  41 CALM      30.41S
$$

MAZ007-012-024-CTZ003-RIZ002-NYZ038-NYZ072-191600-
SOUTHERN NEW ENGLAND AND NY

CITY           SKY/WX    TMP DP  RH WIND       PRES   REMARKS
BOSTON         MOSUNNY   54  34  46 NE12      30.39S
WORCESTER      SUNNY     48  32  53 NE9       30.38R
NANTUCKET      SUNNY     59  39  47 N20G26    30.33R
PROVIDENCE     MOSUNNY   56  34  43 NE12G18   30.38S
HARTFORD       MOSUNNY   55  35  47 VRB6      30.37S
ALBANY         MOSUNNY   52  35  52 N7        30.40R
$$

ANZ081-ANZ082-ANZ150-NHZ014-MEZ023>029-191600-
COASTAL MARINE OBSERVATIONS

STATION/POSITION TIME  TEMP    WIND        PRES    WAVE
                       AIR SEA DIR/SP/G            HT/PER
                 (UTC) (F)     (DEG/KT/KT) (MB)    (FT/S)
MATINICUS ROCK   1400           30/ 12/ 14 1028.0R
PORTLAND WX BUOY 1450   47 57   30/  6/ 10 1029.2R   2/10
WELLS            1400   49 57   40/  7/ 13 1028.5R
ISLE OF SHOALS   1400   49      30/ 18/ 22 1028.4R
JEFFREYS LEDGE   1421      60                N/A     5/ 6
CASHES LEDGE BUO 1450   49 59              1028.2R   4/ 6
$$

.............KEY..............
   WCI - WIND CHILL
   TC  - TEMPERATURE IN CELSIUS
   VSB - VISIBILITY IN MILES
   HX  - HEAT INDEX
   FAIR- INDICATES FEW OR NO CLOUDS BELOW 12,000 FT, WITH NO
         SIGNIFICANT WEATHER AND/OR OBSTRUCTIONS TO VISIBILITY.





USA.gov is the U.S. government's official web portal to all federal, state and local government web resources and services.